Hourly Data Report for February 01, 2005

TORONTO CITY
ONTARIO

43°40'00.000" N
79°24'00.000" W
112.50 m
6158355
71508
XTO

Download Data

Hourly Data (February 2005)
Hourly Data Report for February 1, 2005
TIME
LST
Temp Definition
°C
Dew Point Definition
°C
Rel Hum Definition
%
Precip. Amount Definition
mm

Wind Dir Definition
10's deg

Wind Spd Definition
km/h
Visibility Definition
km
Stn Press Definition
kPa
Hmdx Definition


Wind Chill Definition


Weather Definition


00:00 -4.6 -8.3 75   LegendMM LegendMM   101.50     LegendNANA
01:00 -4.5 -9.0 71   LegendMM LegendMM   101.48     LegendNANA
02:00 -4.9 -8.9 73   LegendMM LegendMM   101.49     LegendNANA
03:00 -5.6 -9.4 75   LegendMM LegendMM   101.51     LegendNANA
04:00 -5.5 -9.3 75   LegendMM LegendMM   101.48     LegendNANA
05:00 -6.2 -9.5 77   LegendMM LegendMM   101.48     LegendNANA
06:00 -6.2 -9.3 79   LegendMM LegendMM   101.53     LegendNANA
07:00 -5.4 -8.6 78   LegendMM LegendMM   101.61     LegendNANA
08:00 -4.8 -9.0 72   LegendMM LegendMM   101.64     LegendNANA
09:00 -3.6 -8.1 71   LegendMM LegendMM   101.72     LegendNANA
10:00 -2.6 -8.0 66   LegendMM LegendMM   101.77     LegendNANA
11:00 -0.7 -7.4 60   LegendMM LegendMM   101.81     LegendNANA
12:00 -1.1 -6.9 65   LegendMM LegendMM   101.79     LegendNANA
13:00 0.5 -6.6 59   LegendMM LegendMM   101.75     LegendNANA
14:00 0.2 -6.5 61   LegendMM LegendMM   101.74     LegendNANA
15:00 -0.6 -6.0 67   LegendMM LegendMM   101.72     LegendNANA
16:00 -0.7 -5.6 69   LegendMM LegendMM   101.73     LegendNANA
17:00 -0.9 -5.3 72   LegendMM LegendMM   101.75     LegendNANA
18:00 -1.6 -5.3 76   LegendMM LegendMM   101.81     LegendNANA
19:00 -2.1 -5.1 80   LegendMM LegendMM   101.89     LegendNANA
20:00 -2.2 -5.2 80   LegendMM LegendMM   101.96     LegendNANA
21:00 -3.1 -5.7 82   LegendMM LegendMM   101.96     LegendNANA
22:00 -2.2 -4.8 82   LegendMM LegendMM   101.95     LegendNANA
23:00 -3.0 -5.7 82   LegendMM LegendMM   101.96     LegendNANA

Notes on Data Quality.

Legend

  • E = Estimated
  • M = Missing
  • NA = Not Available*
  • [empty] = Indicates an unobserved value
Date modified: